User: anonymous   Login
Location: Dumpton Point
(51.3500°N, 1.4433°E)
Time: 15:50:21
(UTC+00:00)
Language:

Vanguard 2 Rocket - Orbit

View from above orbital plane
View from above orbital plane
View from above satellite
View from above satellite

Ground track
Ground track

The orbit data is extracted from the following two-line orbital elements,

1    12U 59001B   22266.90670791  .00000078  00000-0  48566-4 0  9993
2    12  32.9014 331.6658 1665082 112.5934 265.8943 11.44695336617495
Epoch (UTC): 23 September 2022 21:45:39
Eccentricity: 0.1665082
inclination: 32.9014°
perigee height: 553 km
apogee height: 3323 km
right ascension of ascending node: 331.6658°
argument of perigee: 112.5934°
revolutions per day: 11.44695336
mean anomaly at epoch: 265.8943°
orbit number at epoch: 61749

The dashed part of the orbit path shows where the satellite is in the earth's shadow,  

DLR